Time,TemperatureF,DewpointF,PressureIn,WindDirection,WindDirectionDegrees,WindSpeedMPH,WindSpeedGustMPH,Humidity,HourlyPrecipIn,Conditions,Clouds,dailyrainin,SoftwareType,DateUTC
2013-01-07 00:05:00,20.6,14.0,30.02,SW,219,14.0,-999.0,76,-99.99,,,0.00,weatherlink.com 1.10,2013-01-07 06:05:00,
2013-01-07 00:20:00,21.4,15.0,30.01,SSW,197,5.0,-999.0,76,-99.99,,,0.00,weatherlink.com 1.10,2013-01-07 06:20:00,
2013-01-07 00:35:00,22.7,16.0,29.99,SSW,207,5.0,-999.0,76,-99.99,,,0.00,weatherlink.com 1.10,2013-01-07 06:35:00,
2013-01-07 00:50:00,24.4,18.0,29.97,SW,214,11.0,-999.0,75,-99.99,,,0.00,weatherlink.com 1.10,2013-01-07 06:50:00,
2013-01-07 01:05:00,25.6,18.0,29.96,SSE,165,10.0,-999.0,73,-99.99,,,0.00,weatherlink.com 1.10,2013-01-07 07:05:00,
2013-01-07 01:20:00,26.0,18.0,29.94,SW,221,15.0,-999.0,71,-99.99,,,0.00,weatherlink.com 1.10,2013-01-07 07:20:00,
2013-01-07 01:35:00,26.3,18.0,29.94,SSW,213,8.0,-999.0,71,-99.99,,,0.00,weatherlink.com 1.10,2013-01-07 07:35:00,
2013-01-07 01:50:00,26.9,18.0,29.94,SSW,204,13.0,-999.0,70,-99.99,,,0.00,weatherlink.com 1.10,2013-01-07 07:50:00,
2013-01-07 02:05:00,27.3,18.0,29.94,South,191,12.0,-999.0,69,-99.99,,,0.00,weatherlink.com 1.10,2013-01-07 08:05:00,
2013-01-07 02:20:00,27.5,19.0,29.93,SW,225,13.0,-999.0,69,-99.99,,,0.00,weatherlink.com 1.10,2013-01-07 08:20:00,
2013-01-07 02:35:00,28.4,19.0,29.93,SSW,206,7.0,-999.0,68,-99.99,,,0.00,weatherlink.com 1.10,2013-01-07 08:35:00,
2013-01-07 02:50:00,29.0,19.0,29.92,South,188,6.0,-999.0,67,-99.99,,,0.00,weatherlink.com 1.10,2013-01-07 08:50:00,
2013-01-07 03:05:00,30.1,20.0,29.91,SW,232,13.0,-999.0,65,-99.99,,,0.00,weatherlink.com 1.10,2013-01-07 09:05:00,
2013-01-07 03:20:00,30.1,20.0,29.91,SW,231,16.0,-999.0,65,-99.99,,,0.00,weatherlink.com 1.10,2013-01-07 09:20:00,
2013-01-07 03:35:00,29.7,20.0,29.91,SW,219,12.0,-999.0,66,-99.99,,,0.00,weatherlink.com 1.10,2013-01-07 09:35:00,
2013-01-07 03:50:00,29.3,20.0,29.91,South,183,6.0,-999.0,67,-99.99,,,0.00,weatherlink.com 1.10,2013-01-07 09:50:00,
2013-01-07 04:05:00,29.4,20.0,29.89,SSW,210,11.0,-999.0,67,-99.99,,,0.00,weatherlink.com 1.10,2013-01-07 10:05:00,
2013-01-07 04:20:00,29.3,20.0,29.90,SW,219,10.0,-999.0,68,-99.99,,,0.00,weatherlink.com 1.10,2013-01-07 10:20:00,
2013-01-07 04:35:00,28.5,20.0,29.90,SSW,195,6.0,-999.0,69,-99.99,,,0.00,weatherlink.com 1.10,2013-01-07 10:35:00,
2013-01-07 04:50:00,27.9,19.0,29.90,SW,216,5.0,-999.0,70,-99.99,,,0.00,weatherlink.com 1.10,2013-01-07 10:50:00,
2013-01-07 05:05:00,27.6,19.0,29.91,South,182,17.0,-999.0,71,-99.99,,,0.00,weatherlink.com 1.10,2013-01-07 11:05:00,
2013-01-07 05:20:00,27.3,19.0,29.91,SW,224,7.0,-999.0,72,-99.99,,,0.00,weatherlink.com 1.10,2013-01-07 11:20:00,
2013-01-07 05:35:00,27.2,20.0,29.91,SSW,200,5.0,-999.0,73,-99.99,,,0.00,weatherlink.com 1.10,2013-01-07 11:35:00,
2013-01-07 05:50:00,26.9,20.0,29.91,SSW,205,5.0,-999.0,74,-99.99,,,0.00,weatherlink.com 1.10,2013-01-07 11:50:00,
2013-01-07 06:05:00,26.9,20.0,29.91,WSW,238,7.0,-999.0,74,-99.99,,,0.00,weatherlink.com 1.10,2013-01-07 12:05:00,
2013-01-07 06:20:00,27.2,20.0,29.91,SSW,200,4.0,-999.0,74,-99.99,,,0.00,weatherlink.com 1.10,2013-01-07 12:20:00,
2013-01-07 06:35:00,27.5,20.0,29.92,SSW,195,5.0,-999.0,74,-99.99,,,0.00,weatherlink.com 1.10,2013-01-07 12:35:00,
2013-01-07 06:50:00,27.5,20.0,29.91,South,184,4.0,-999.0,74,-99.99,,,0.00,weatherlink.com 1.10,2013-01-07 12:50:00,
2013-01-07 07:05:00,27.2,20.0,29.91,SW,219,8.0,-999.0,74,-99.99,,,0.00,weatherlink.com 1.10,2013-01-07 13:05:00,
2013-01-07 07:20:00,27.0,20.0,29.92,SW,226,11.0,-999.0,74,-99.99,,,0.00,weatherlink.com 1.10,2013-01-07 13:20:00,
2013-01-07 07:35:00,26.7,20.0,29.92,WSW,243,10.0,-999.0,75,-99.99,,,0.00,weatherlink.com 1.10,2013-01-07 13:35:00,
2013-01-07 07:50:00,26.3,19.0,29.92,SSW,210,5.0,-999.0,75,-99.99,,,0.00,weatherlink.com 1.10,2013-01-07 13:50:00,
2013-01-07 08:05:00,26.1,19.0,29.93,SW,214,7.0,-999.0,75,-99.99,,,0.00,weatherlink.com 1.10,2013-01-07 14:05:00,
2013-01-07 08:20:00,26.0,19.0,29.92,SSW,209,5.0,-999.0,76,-99.99,,,0.00,weatherlink.com 1.10,2013-01-07 14:20:00,
2013-01-07 08:35:00,25.8,19.0,29.93,SSW,200,11.0,-999.0,76,-99.99,,,0.00,weatherlink.com 1.10,2013-01-07 14:35:00,
2013-01-07 08:50:00,25.8,19.0,29.92,SW,221,10.0,-999.0,76,-99.99,,,0.00,weatherlink.com 1.10,2013-01-07 14:50:00,
2013-01-07 09:05:00,26.0,19.0,29.92,SW,215,7.0,-999.0,76,-99.99,,,0.00,weatherlink.com 1.10,2013-01-07 15:05:00,
2013-01-07 09:20:00,26.1,19.0,29.92,SW,229,10.0,-999.0,75,-99.99,,,0.00,weatherlink.com 1.10,2013-01-07 15:20:00,
2013-01-07 09:35:00,26.4,20.0,29.92,SW,224,5.0,-999.0,75,-99.99,,,0.00,weatherlink.com 1.10,2013-01-07 15:35:00,
2013-01-07 09:50:00,27.5,20.0,29.94,SW,217,6.0,-999.0,74,-99.99,,,0.00,weatherlink.com 1.10,2013-01-07 15:50:00,
2013-01-07 10:05:00,28.2,21.0,29.94,SW,218,6.0,-999.0,73,-99.99,,,0.00,weatherlink.com 1.10,2013-01-07 16:05:00,
2013-01-07 10:20:00,28.4,20.0,29.95,SW,221,4.0,-999.0,72,-99.99,,,0.00,weatherlink.com 1.10,2013-01-07 16:20:00,
2013-01-07 10:35:00,29.0,21.0,29.95,WSW,241,3.0,-999.0,72,-99.99,,,0.00,weatherlink.com 1.10,2013-01-07 16:35:00,
2013-01-07 11:05:00,29.7,21.0,29.94,SSW,192,4.0,-999.0,71,-99.99,,,0.00,weatherlink.com 1.10,2013-01-07 17:05:00,
2013-01-07 11:20:00,30.3,22.0,29.94,SW,216,4.0,-999.0,71,-99.99,,,0.00,weatherlink.com 1.10,2013-01-07 17:20:00,
2013-01-07 11:35:00,30.7,22.0,29.93,SW,216,5.0,-999.0,70,-99.99,,,0.00,weatherlink.com 1.10,2013-01-07 17:35:00,
2013-01-07 11:50:00,31.2,22.0,29.93,WSW,245,9.0,-999.0,69,-99.99,,,0.00,weatherlink.com 1.10,2013-01-07 17:50:00,
2013-01-07 12:05:00,31.8,22.0,29.92,WSW,256,5.0,-999.0,68,-99.99,,,0.00,weatherlink.com 1.10,2013-01-07 18:05:00,
2013-01-07 12:20:00,32.5,22.0,29.91,SW,232,5.0,-999.0,66,-99.99,,,0.00,weatherlink.com 1.10,2013-01-07 18:20:00,
2013-01-07 12:35:00,33.1,22.0,29.91,SW,214,4.0,-999.0,65,-99.99,,,0.00,weatherlink.com 1.10,2013-01-07 18:35:00,
2013-01-07 12:50:00,33.7,23.0,29.91,SSW,209,6.0,-999.0,64,-99.99,,,0.00,weatherlink.com 1.10,2013-01-07 18:50:00,
2013-01-07 13:05:00,34.0,23.0,29.91,SSW,212,5.0,-999.0,64,-99.99,,,0.00,weatherlink.com 1.10,2013-01-07 19:05:00,
2013-01-07 13:20:00,34.7,23.0,29.90,SSW,203,4.0,-999.0,63,-99.99,,,0.00,weatherlink.com 1.10,2013-01-07 19:20:00,
2013-01-07 13:35:00,35.0,23.0,29.90,SSW,212,4.0,-999.0,63,-99.99,,,0.00,weatherlink.com 1.10,2013-01-07 19:35:00,
2013-01-07 13:50:00,35.6,24.0,29.90,SW,217,1.0,-999.0,62,-99.99,,,0.00,weatherlink.com 1.10,2013-01-07 19:50:00,
2013-01-07 14:05:00,35.5,24.0,29.90,SSW,199,0.0,-999.0,62,-99.99,,,0.00,weatherlink.com 1.10,2013-01-07 20:05:00,
2013-01-07 14:20:00,35.6,24.0,29.90,SSW,206,7.0,-999.0,62,-99.99,,,0.00,weatherlink.com 1.10,2013-01-07 20:20:00,
2013-01-07 14:35:00,35.8,24.0,29.91,SSW,207,1.0,-999.0,63,-99.99,,,0.00,weatherlink.com 1.10,2013-01-07 20:35:00,
2013-01-07 14:49:00,35.9,24.0,29.91,SSW,194,3.0,-999.0,62,-99.99,,,0.00,weatherlink.com 1.10,2013-01-07 20:49:00,
2013-01-07 15:05:00,35.5,24.0,29.91,SSW,198,4.0,-999.0,63,-99.99,,,0.00,weatherlink.com 1.10,2013-01-07 21:05:00,
2013-01-07 15:20:00,34.9,24.0,29.91,SSW,201,4.0,-999.0,65,-99.99,,,0.00,weatherlink.com 1.10,2013-01-07 21:20:00,
2013-01-07 15:35:00,34.6,24.0,29.91,SSW,206,5.0,-999.0,66,-99.99,,,0.00,weatherlink.com 1.10,2013-01-07 21:35:00,
2013-01-07 15:50:00,34.4,24.0,29.92,SSW,208,3.0,-999.0,66,-99.99,,,0.00,weatherlink.com 1.10,2013-01-07 21:50:00,
2013-01-07 16:05:00,34.1,24.0,29.92,SSW,204,4.0,-999.0,67,-99.99,,,0.00,weatherlink.com 1.10,2013-01-07 22:05:00,
2013-01-07 16:20:00,33.5,24.0,29.93,SSW,207,5.0,-999.0,68,-99.99,,,0.00,weatherlink.com 1.10,2013-01-07 22:20:00,
2013-01-07 16:35:00,32.7,24.0,29.93,SSW,203,6.0,-999.0,70,-99.99,,,0.00,weatherlink.com 1.10,2013-01-07 22:35:00,
2013-01-07 16:50:00,31.8,23.0,29.94,SSW,192,5.0,-999.0,71,-99.99,,,0.00,weatherlink.com 1.10,2013-01-07 22:50:00,
2013-01-07 17:05:00,31.3,22.0,29.94,SSW,196,5.0,-999.0,69,-99.99,,,0.00,weatherlink.com 1.10,2013-01-07 23:05:00,
2013-01-07 17:20:00,30.7,23.0,29.95,SSW,196,3.0,-999.0,73,-99.99,,,0.00,weatherlink.com 1.10,2013-01-07 23:20:00,
2013-01-07 17:35:00,30.3,23.0,29.96,SSW,197,5.0,-999.0,74,-99.99,,,0.00,weatherlink.com 1.10,2013-01-07 23:35:00,
2013-01-07 17:50:00,30.0,23.0,29.96,SSW,198,3.0,-999.0,75,-99.99,,,0.00,weatherlink.com 1.10,2013-01-07 23:50:00,
2013-01-07 18:05:00,29.7,23.0,29.96,SSW,198,4.0,-999.0,76,-99.99,,,0.00,weatherlink.com 1.10,2013-01-08 00:05:00,
2013-01-07 18:21:00,29.4,23.0,29.96,SSW,202,3.0,-999.0,76,-99.99,,,0.00,weatherlink.com 1.10,2013-01-08 00:21:00,
2013-01-07 18:35:00,29.3,23.0,29.96,SSW,198,3.0,-999.0,76,-99.99,,,0.00,weatherlink.com 1.10,2013-01-08 00:35:00,
2013-01-07 18:50:00,29.0,23.0,29.96,SSW,205,4.0,-999.0,77,-99.99,,,0.00,weatherlink.com 1.10,2013-01-08 00:50:00,
2013-01-07 19:05:00,28.8,22.0,29.96,SSW,200,4.0,-999.0,77,-99.99,,,0.00,weatherlink.com 1.10,2013-01-08 01:05:00,
2013-01-07 19:20:00,28.4,22.0,29.96,SSW,194,4.0,-999.0,78,-99.99,,,0.00,weatherlink.com 1.10,2013-01-08 01:20:00,
2013-01-07 19:35:00,27.9,22.0,29.96,SSW,202,4.0,-999.0,79,-99.99,,,0.00,weatherlink.com 1.10,2013-01-08 01:35:00,
2013-01-07 19:50:00,27.6,22.0,29.96,South,184,4.0,-999.0,79,-99.99,,,0.00,weatherlink.com 1.10,2013-01-08 01:50:00,
2013-01-07 20:05:00,27.3,22.0,29.96,SW,223,5.0,-999.0,80,-99.99,,,0.00,weatherlink.com 1.10,2013-01-08 02:05:00,
2013-01-07 20:20:00,27.2,22.0,29.96,SSW,193,2.0,-999.0,80,-99.99,,,0.00,weatherlink.com 1.10,2013-01-08 02:20:00,
2013-01-07 20:35:00,26.9,22.0,29.96,SSW,196,3.0,-999.0,81,-99.99,,,0.00,weatherlink.com 1.10,2013-01-08 02:35:00,
2013-01-07 20:50:00,26.4,22.0,29.95,SSW,203,3.0,-999.0,82,-99.99,,,0.00,weatherlink.com 1.10,2013-01-08 02:50:00,
2013-01-07 21:05:00,26.3,22.0,29.96,SSW,205,1.0,-999.0,83,-99.99,,,0.00,weatherlink.com 1.10,2013-01-08 03:05:00,
2013-01-07 21:20:00,26.1,22.0,29.96,SSW,200,6.0,-999.0,83,-99.99,,,0.00,weatherlink.com 1.10,2013-01-08 03:20:00,
2013-01-07 21:35:00,26.0,22.0,29.96,SSW,202,5.0,-999.0,84,-99.99,,,0.00,weatherlink.com 1.10,2013-01-08 03:35:00,
2013-01-07 21:50:00,26.1,22.0,29.96,SSW,202,3.0,-999.0,84,-99.99,,,0.00,weatherlink.com 1.10,2013-01-08 03:50:00,
2013-01-07 22:05:00,26.0,22.0,29.96,SSW,201,4.0,-999.0,83,-99.99,,,0.00,weatherlink.com 1.10,2013-01-08 04:05:00,
2013-01-07 22:20:00,25.8,22.0,29.97,SSW,205,4.0,-999.0,84,-99.99,,,0.00,weatherlink.com 1.10,2013-01-08 04:20:00,
2013-01-07 22:35:00,25.6,21.0,29.96,SSW,207,3.0,-999.0,84,-99.99,,,0.00,weatherlink.com 1.10,2013-01-08 04:35:00,
2013-01-07 22:50:00,25.4,21.0,29.97,SSW,210,5.0,-999.0,84,-99.99,,,0.00,weatherlink.com 1.10,2013-01-08 04:50:00,
2013-01-07 23:20:00,25.6,21.0,29.97,SSW,213,2.0,-999.0,84,-99.99,,,0.00,weatherlink.com 1.10,2013-01-08 05:20:00,
2013-01-07 23:35:00,25.0,21.0,29.97,SSW,213,3.0,-999.0,84,-99.99,,,0.00,weatherlink.com 1.10,2013-01-08 05:35:00,
2013-01-07 23:50:00,24.5,21.0,29.98,SSW,213,0.0,-999.0,85,-99.99,,,0.00,weatherlink.com 1.10,2013-01-08 05:50:00,